Погода Остров Врангеля

Погода Остров Врангеля : погода сейчас, прогноз погоды и архив. Всё, что Вы хотите узнать о погоде Остров Врангеля!

Поиск расширенной информации на нашем сайте:

Другие новости

Новости СМИ2

Главная страница сайта

Новости сайта

02.10.2013

Напоминаем, что на нашем новом сайте вы можете получить высокодетализированные прогнозы погоды по пунктам России, СНГ и мира (включающие важные для авиации метеовеличины, такие как направление и скорость ветра, видимость, явления погоды, количество и форма облачности, нижняя и верхняя граница облачности), а также ознакомиться с разнообразными материалами по авиационной метеорологии и подборкой полезных ссылок на эту тему.

Сайт Метеоцентр.Азия посвящён разработке технологий оптимизации авиаметеорологического обслуживания, включая проектирование и перспективное создание нескольких автоматизированных авиаметеорологических систем:
- система выпуска высокодетальных прогностических карт явлений погоды для нижнего воздушного пространства по России и ближнему зарубежью;
- система верификации прогнозов TAF (выпускаемых синоптиками официальных АМСГ РФ и ближнего зарубежья) и AUTOTAF (выпускаемых сайтом Метеоцентр.Азия) - выявление ошибок, онлайн-сопоставление с фактической погодой METAR, автоматическое внесение коррективов в прогнозы при резком отклонении фактической погоды от прогноза, подсчёт оправдываемости прогнозов по элементам и в целом;
- система обработки, анализа и отображения авиаметеорологической информации для применения провайдерами метеорологической информации.


Погода Остров Врангеля - сегодня

Время (UTC), дата Ветер
(°,м/с) 
Видим.   Явления Облачность Т
(°С)
Тd
(°С)
f(%) Тe
(°С)
Pmin
(гПа)
dP
(гПа)
Po
(мм)
O2
(г/м3)
Тmin Tmax R s Состояние
почвы
18 27.03.17 тихо () {02}  20000 м    1/0 верхняя 
[Ci fib]
-20.3 -22.7 81 -20  1018.4  0.1  762  333  -21.6      равномерный
сухой снег
100% 
21 27.03.17 030 (СВ) 1{02}  20000 м    4/0 верхняя 
[Ci fib]
-18.4 -20.4 84 -19  1018.8  0.4  762  331           
00 28.03.17 210 (ЮЗ) 1{01}  20000 м    3/0 верхняя 
[Ci fib]
-16.9 -19.2 82 -17  1019  0.2  762  329           
03 28.03.17 тихо () {01}  20000 м    ясно 
-13.5 -17.5 72 -14  1018.7  -0.2  762  324           
06 28.03.17 тихо () {01}  20000 м    ясно 
-18.5 -20.3 86 -19  1018.7  -0.1  762  331    -13.3       
09 28.03.17 250 (З) 1{02}  20000 м    ясно 
-19.9 -22 83 -20  1019  0.3  762  333           
12 28.03.17 260 (З) 1{01}  20000 м    ясно 
-20.9 -23 83 -21  1018.6  -0.4  762  334           
15 28.03.17 тихо () {03}  20000 м    ясно 
-21.5 -24 80 -22  1017.8  -0.9  761  335           
18 28.03.17 260 (З) 1{03}  20000 м    6/0 средняя, верхняя 
[Ac trans|Ci fib]
-21.7 -24.4 79 -22  1017.3  -0.4  761  335  -22.1      равномерный
сухой снег
100% 
21 28.03.17 240 (ЮЗ) 2{03}  20000 м    3/0 верхняя 
[Ci fib]
-19.8 -22.3 80 -23  1016.8  -0.4  761  332  -22.5         
00 29.03.17 250 (З) 4{05}  20000 м    8/5 600 м верхняя 
[Sc|Ci fib]
-17.2 -19.2 84 -22  1016.1  -0.7  760  328           
03 29.03.17 230 (ЮЗ) 4{06}  20000 м    1/0 верхняя 
[Ci sp]
-16.1 -18.3 83 -21  1015  -1.1  759  327           
06 29.03.17 240 (ЮЗ) 4{07}  20000 м    3/0 средняя 
[Ac trans]
-17 -19.2 83 -22  1015  759  328    -15.5       
09 29.03.17 310 (СЗ) 1{06}  20000 м    1/0 средняя 
[Ac trans]
-19.9 -22.1 83 -20  1016  0.9  760  332           
12 29.03.17 060 (СВ) 2{05}  20000 м    ясно 
-21.9 -24.3 81 -25  1016.8  0.7  760  335           
15 29.03.17 030 (СВ) 1{04}  20000 м    8/0 средняя 
[Ac lent]
-18.5 -20.9 81 -19  1017  0.3  761  330           
18 29.03.17 060 (СВ) 1{03}  20000 м    9/0 средняя 
[Ac lent]
-19.6 -22.4 78 -20  1017.4  0.4  761  332  -22.2      равномерный
сухой снег
100% 
21 29.03.17 тихо () {02}  20000 м    8/0 средняя 
[Ac lent]
-16.7 -19.4 80 -17  1017.6  0.3  761  328           
00 30.03.17 тихо () {03}  20000 м    10/0 средняя, верхняя 
[Ac trans|Cs]
-13.3 -17.4 71 -13  1017.5  -0.1  761  324           
03 30.03.17 240 (ЮЗ) 1{02}  20000 м    10/0 средняя 
[As trans]
-13 -16.8 73 -13  1017.1  -0.4  761  323           
06 30.03.17 250 (З) 5{08}  20000 м    10/3 600 м средняя 
[Sc|As trans]
-11.6 -13.9 83 -17  1016.7  -0.4  760  321    -11.4       
09 30.03.17 220 (ЮЗ) 4{07}  20000 м    9/1 600 м средняя 
[Sc|Ac trans]
-11.8 -14.4 81 -16  1016.5  -0.2  760  321           
12 30.03.17 230 (ЮЗ) 4{09}  20000 м    8/0 средняя 
[Ac trans]
-10.9 -14.3 76 -15  1015.9  -0.6  760  320           
15 30.03.17 240 (ЮЗ) 4{07}  20000 м    8/0 средняя 
[Ac trans]
-13.3 -15.8 81 -18  1015.2  -0.7  759  323           
18 30.03.17 060 (СВ) 2{05}  20000 м    9/0 средняя 
[Ac trans]
-14.8 -16.9 84 -17  1014.9  -0.3  759  325  -15.1      равномерный
сухой снег
100% 
Время (UTC), дата Ветер
(°,м/с) 
Видим.   Явления Облачность Т
(°С)
Тd
(°С)
f(%) Тe
(°С)
Pmin
(гПа)
dP
(гПа)
Po
(мм)
O2
(г/м3)
Тmin Tmax R s Состояние
почвы

Для получения пояснительной информации подведите курсор к названию столбца.

ПОГОДА Остров Врангеля - архив

Всё, что Вы хотите узнать о погоде Остров Врангеля - удобно и подробно!

Выберите нужную дату (начиная с 1 января 2015* года) и нажмите кнопку "Найти".
Будут отображены архивные сводки погоды по пункту Остров Врангеля, начиная с указанной даты.


Отображать данные в формате CSV (для использования в таблицах Excel)


Внимание! Наш архив погоды предназначен исключительно для личного некоммерческого использования в познавательных целях. Если Вам необходимы официальные справки о состоянии погоды (для производственных, юридических, коммерческих и т.п. целей), обращайтесь в органы Росгидромета.

*Примечание: данная дата относится к архиву по метеостанциям СССР (Россия, СНГ, Балтия).
Архив по метеостанциям Зарубежной Европы и Азии (кроме Китая) хранится 10 дней, по другим регионам земного шара (Китай, Африка, Америка, Австралия, Океания) - 1 день.

Остров Врангеля - район местоположения метеостанции


Название, широта, долгота, высота метеостанции:
Остров Врангеля 71°ш. -178.5°д. 5 м над ур. моря [Российская Федерация]

Дополнительная информация

В oтличие oт бoльшинства пoгoдных сайтoв мы публикуем пoдрoбную метеoинфoрмацию в детальнoм прoфессиoнальнoм фoрмате.

Характеристики температуры и влажнoсти вoздуха измеряются на высoте 2 м в тени вдали oт зданий и деревьев.
Скoрoсть ветра измеряется на высoте 10 м (на урoвне рoста челoвека скoрoсть ветра ниже в 1.5-2 раза). Если метеoстанция нахoдится в гoрoде или в лесу, тo скoрoсть ветра занижена на 2-4 м/с пo сравнению с oткрытым местoм. Скoрoсть ветра над акватoриями крупных рек и oзёр, а также на вершинах хoлмoв на 2-5 м/с выше, чем в oбычных услoвиях.
Атмoсфернoе давление в разных тoчках местнoсти мoжет значительнo oтличаться oт давления на метеoстанции, в зависимoсти oт услoвий рельефа (при пoдъёме на 10 м давление пoнижается примернo на 1 мм рт.ст.).